Regional Weather Roundup
Issued by NWS Portland, ME

Home | Current Version | Previous Version | Text Only | Print | Product List | Glossary On
Versions: 1 2 3 4 5 6 7 8 9 10 11 12 13 14 15 16 17 18 19 20 21 22 23 24 25 26 27 28 29 30 31 32 33 34 35 36 37 38 39 40 41 42 43 44 45 46 47 48 49 50
000
ASUS41 KGYX 211910
RWRGYX
WEATHER ROUNDUP FOR MAINE AND NEW HAMPSHIRE
NATIONAL WEATHER SERVICE GRAY ME
300 PM EDT SUN SEP 21 2014

MEZ002-005-006-010-012-015-018-020-021-024-026-027-029-212000-
MAINE

CITY           SKY/WX    TMP DP  RH WIND       PRES   REMARKS
PORTLAND       CLOUDY    68  64  87 S8        29.78F
SANFORD        PTSUNNY   75  64  69 SE6       29.76F
BAR HARBOR     CLOUDY    70  68  94 S7        29.84F
WISCASSET      CLOUDY    69  65  86 VRB5      29.82F
ROCKLAND       CLOUDY    64  63  94 S9        29.81F
FRYEBURG       CLOUDY    68  66  93 NW3       29.76F
LEWISTONAUBURN MOSUNNY   72  66  83 S9        29.77F
AUGUSTA        CLOUDY    69  65  86 S14G21    29.79F
WATERVILLE     CLOUDY    70  63  78 S6        29.74F
BANGOR         PTSUNNY   72  64  76 S14G24    29.81F
GREENVILLE       N/A     64  62  93 S6        29.77F
MILLINOCKET    LGT RAIN  67  64  90 S8        29.80F
HOULTON        LGT RAIN  66  63  90 VRB7      29.80F FOG
PRESQUE ISLE   CLOUDY    72  57  60 S22G30    29.75S
FRENCHVILLE    MOSUNNY   72  58  61 S12G23    29.70F
CARIBOU        SUNNY     72  60  66 S24G33    29.73F
$$

NHZ002-005-008-009-011-012-014-212000-
NEW HAMPSHIRE

CITY           SKY/WX    TMP DP  RH WIND       PRES   REMARKS
PORTSMOUTH     CLOUDY    75  67  76 SE15      29.74F
ROCHESTER      PTSUNNY   76  67  73 SE8       29.74F
NASHUA         CLOUDY    79  68  69 SE8       29.73F
MANCHESTER     PTSUNNY   78  68  71 S10       29.71F
CONCORD        PTSUNNY   76  68  76 S9        29.73F
LACONIA        PTSUNNY   75  64  69 SW10      29.73F
PLYMOUTH       CLOUDY    74  69  84 E5        29.73F
BERLIN         MOSUNNY   76  61  59 S16G25    29.73F
WHITEFIELD     MOSUNNY   77  59  53 S14G23    29.72F
JAFFREY        PTSUNNY   75  66  73 S7        29.76F
LEBANON        PTSUNNY   80  63  55 S13       29.70F
MT WASHINGTON  FOG       50  50 100 SW36G48     N/A  VSB 1/16
$$

VTZ005-007-008-212000-
VERMONT

CITY           SKY/WX    TMP DP  RH WIND       PRES   REMARKS
ST JOHNSBURY     N/A     77  60  55 MISG      29.67F
MONTPELIER     PTSUNNY   75  60  59 S20G25    29.72F
BURLINGTON     PTSUNNY   80  58  46 S15G30    29.62F
$$

MAZ007-012-024-CTZ003-RIZ002-NYZ038-NYZ072-212000-
SOUTHERN NEW ENGLAND AND NY

CITY           SKY/WX    TMP DP  RH WIND       PRES   REMARKS
BOSTON         CLOUDY    78  67  68 S9        29.73F
WORCESTER      CLOUDY    72  68  87 S9        29.76F
NANTUCKET      CLOUDY    70  67  90 SE14G20   29.75F
PROVIDENCE     CLOUDY    73  69  87 S12       29.74F
HARTFORD       CLOUDY    78  70  76 S6        29.70F
ALBANY         PTSUNNY   81  56  42 S15       29.67F
NEW YORK CITY  CLOUDY    73  66  78 CALM      29.71F
$$

ANZ081-ANZ082-ANZ150-NHZ014-MEZ023>029-212000-
COASTAL MARINE OBSERVATIONS

STATION/POSITION TIME  TEMP    WIND        PRES    WAVE
                       AIR SEA DIR/SP/G            HT/PER
                 (UTC) (F)     (DEG/KT/KT) (MB)    (FT/S)
MATINICUS ROCK   1900          150/ 16/ 17 1009.2F
PORTLAND WX BUOY 1850   63 59  160/ 14/ 17 1008.2F   3/ 5
WELLS            1800   67 59  200/ 12/ 14 1008.2F
ISLE OF SHOALS   1900   64     150/ 15/ 16 1007.0F
JEFFREYS LEDGE   1821      60                N/A     3/11
CASHES LEDGE BUO 1850   65 62              1008.8F   3/ 4
$$

.............KEY..............
   WCI - WIND CHILL
   TC  - TEMPERATURE IN CELSIUS
   VSB - VISIBILITY IN MILES
   HX  - HEAT INDEX
   FAIR- INDICATES FEW OR NO CLOUDS BELOW 12,000 FT, WITH NO
         SIGNIFICANT WEATHER AND/OR OBSTRUCTIONS TO VISIBILITY.




USA.gov is the U.S. government's official web portal to all federal, state and local government web resources and services.